Bellingham, WA
on Sunday, November 25, 2012

Sunday
Previous Day Next Day
Daily Summary
 ActualAverageRecord
Temperature
Mean Temperature °F 41°F  
Max Temperature 45°F 47°F 60°F (1949)
Min Temperature 32°F 35°F 15°F (1993)
Degree Days
Heating Degree Days 26 24  
Month to date heating degree days 530  
Cooling Degree Days 0 0  
Month to date cooling degree days 0  
Year to date cooling degree days 42  
Moisture
Dew Point 36°F   
Average Humidity 92    
Maximum Humidity 100    
Minimum Humidity 76    
Precipitation
Precipitation 0.01 in 0.19 in 1.16 in (1977)
Month to date precipitation 4.88  
Year to date precipitation 30.69  
Wind
Wind Speed 1 mph   
Max Wind Speed 7 mph   
Max Gust Speed mph   
Visibility 6 miles   
Events Fog , Rain   

Key: T is trace of precipitation, MM is missing value
Source: NWS Daily Summary
Time(PST)TemperatureDew PointHumidity Pressure Visibility Wind DirectionWind SpeedGust SpeedPrecipitationEvents Conditions
12:01 AM 35.6°F 33.8°F 93% 30.27 in 5.0 miles Calm Calm - N/A   Scattered Clouds
12:10 AM 35.6°F 33.8°F 93% 30.27 in 6.0 miles Calm Calm - N/A   Mostly Cloudy
12:21 AM 35.6°F 33.8°F 93% 30.27 in 4.0 miles Calm Calm - N/A   Partly Cloudy
12:31 AM 35.6°F 33.8°F 93% 30.27 in 1.8 miles Calm Calm - N/A   Scattered Clouds
12:44 AM 33.8°F 30.2°F 87% 30.27 in 0.8 miles Calm Calm - N/A   Partly Cloudy
12:53 AM 33.1°F 30.0°F 89% 30.30 in 0.5 miles Calm Calm - N/A Fog Fog
1:14 AM 33.8°F 32.0°F 93% 30.28 in 0.8 miles Calm Calm - N/A   Mostly Cloudy
1:24 AM 33.8°F 32.0°F 93% 30.28 in 1.2 miles Calm Calm - N/A   Overcast
1:44 AM 33.8°F 33.8°F 100% 30.28 in 0.5 miles Calm Calm - N/A Fog Fog
1:51 AM 33.8°F 33.8°F 100% 30.28 in 1.0 miles Calm Calm - N/A   Overcast
1:53 AM 34.0°F 33.1°F 96% 30.31 in 1.2 miles Calm Calm - N/A   Overcast
1:58 AM 33.8°F 33.8°F 100% 30.28 in 3.0 miles Calm Calm - N/A   Overcast
2:53 AM 37.0°F 36.0°F 96% 30.32 in 5.0 miles Calm Calm - N/A   Overcast
3:06 AM 37.4°F 35.6°F 93% 30.29 in 4.0 miles Calm Calm - N/A   Overcast
3:22 AM 37.4°F 35.6°F 93% 30.29 in 7.0 miles SSE 3.5 mph - N/A   Overcast
3:53 AM 37.9°F 37.0°F 97% 30.32 in 10.0 miles South 3.5 mph - N/A   Mostly Cloudy
4:09 AM 35.6°F 33.8°F 93% 30.30 in 2.0 miles Calm Calm - N/A   Overcast
4:24 AM 35.6°F 35.6°F 100% 30.30 in 5.0 miles Calm Calm - N/A   Overcast
4:53 AM 36.0°F 35.1°F 97% 30.33 in 6.0 miles Calm Calm - N/A   Overcast
5:01 AM 35.6°F 33.8°F 93% 30.30 in 5.0 miles Calm Calm - N/A   Overcast
5:53 AM 37.0°F 36.0°F 96% 30.33 in 4.0 miles Calm Calm - 0.00 in Rain Light Rain
6:38 AM 37.4°F 37.4°F 100% 30.30 in 4.0 miles Calm Calm - 0.00 in   Overcast
6:44 AM 37.4°F 37.4°F 100% 30.31 in 2.0 miles Calm Calm - 0.00 in   Overcast
6:53 AM 39.9°F 39.0°F 97% 30.34 in 2.0 miles SSW 3.5 mph - 0.00 in Rain Light Rain
6:55 AM 39.2°F 39.2°F 100% 30.31 in 1.5 miles Calm Calm - 0.01 in Rain Light Rain
7:05 AM 39.2°F 39.2°F 100% 30.31 in 3.0 miles Calm Calm - 0.01 in Rain Light Rain
7:19 AM 39.2°F 39.2°F 100% 30.32 in 2.0 miles Calm Calm - 0.01 in Rain Light Rain
7:53 AM 39.9°F 37.9°F 93% 30.35 in 2.0 miles SE 3.5 mph - 0.01 in   Overcast
7:59 AM 39.2°F 37.4°F 93% 30.33 in 5.0 miles Calm Calm - N/A   Overcast
8:53 AM 41.0°F 39.9°F 96% 30.37 in 5.0 miles Calm Calm - 0.00 in Rain Light Rain
9:03 AM 41.0°F 39.2°F 93% 30.34 in 7.0 miles Calm Calm - 0.00 in Rain Light Rain
9:45 AM 42.8°F 39.2°F 87% 30.35 in 10.0 miles SE 3.5 mph - 0.00 in Rain Light Rain
9:53 AM 43.0°F 39.0°F 86% 30.38 in 10.0 miles SE 3.5 mph - 0.00 in   Mostly Cloudy
10:30 AM 42.8°F 39.2°F 87% 30.36 in 10.0 miles SSE 3.5 mph - N/A   Scattered Clouds
10:53 AM 43.0°F 39.9°F 89% 30.39 in 10.0 miles SSE 4.6 mph - N/A   Overcast
11:53 AM 43.0°F 41.0°F 93% 30.38 in 10.0 miles Calm Calm - N/A   Overcast
12:37 PM 44.6°F 37.4°F 76% 30.35 in 10.0 miles Calm Calm - N/A   Overcast
12:53 PM 44.1°F 39.9°F 85% 30.38 in 10.0 miles Calm Calm - N/A   Overcast
1:03 PM 44.6°F 39.2°F 81% 30.34 in 10.0 miles Variable 3.5 mph - N/A   Overcast
1:30 PM 44.6°F 39.2°F 81% 30.34 in 10.0 miles North 3.5 mph - N/A   Overcast
1:53 PM 45.0°F 39.0°F 80% 30.37 in 10.0 miles North 3.5 mph - N/A   Overcast
2:53 PM 43.0°F 37.9°F 82% 30.36 in 10.0 miles Calm Calm - N/A   Scattered Clouds
3:53 PM 39.9°F 37.9°F 93% 30.36 in 10.0 miles Calm Calm - N/A   Clear
4:53 PM 37.0°F 34.0°F 89% 30.35 in 10.0 miles Calm Calm - N/A   Clear
5:53 PM 35.1°F 33.1°F 92% 30.34 in 8.0 miles Calm Calm - N/A   Clear
5:58 PM 35.6°F 33.8°F 93% 30.31 in 1.8 miles Calm Calm - N/A   Partly Cloudy
6:01 PM 35.6°F 33.8°F 93% 30.30 in 0.8 miles Calm Calm - N/A   Mist
6:08 PM 35.6°F 33.8°F 93% 30.30 in 8.0 miles Calm Calm - N/A   Partly Cloudy
6:53 PM 37.9°F 36.0°F 93% 30.32 in 8.0 miles NW 5.8 mph - N/A   Partly Cloudy
7:53 PM 35.1°F 33.1°F 92% 30.32 in 7.0 miles North 3.5 mph - N/A   Clear
8:53 PM 34.0°F 32.0°F 92% 30.32 in 8.0 miles Calm Calm - N/A   Clear
9:15 PM 33.8°F 30.2°F 87% 30.28 in 1.5 miles North 4.6 mph - N/A   Clear
9:30 PM 33.8°F 30.2°F 87% 30.28 in 8.0 miles Calm Calm - N/A   Clear
9:53 PM 32.0°F 30.0°F 92% 30.30 in 4.0 miles Calm Calm - N/A   Clear
10:53 PM 34.0°F 32.0°F 92% 30.29 in 10.0 miles North 6.9 mph - N/A   Clear
11:53 PM 33.1°F 30.9°F 92% 30.29 in 10.0 miles North 4.6 mph - N/A   Clear
Moon Phase
Nov. 25 Nov. 28 Dec. 06 Dec. 13 Dec. 20
Sunrise:07:34 AM (PST) Moon Rise:02:47 PM (PST)11/25
Sunset:04:19 PM (PST) Moon Set:04:44 AM (PST)11/25

Copyright © 2014 The Weather Underground, Inc.